Regional Weather Roundup
Issued by NWS Charleston, WV

Home | Current Version | Previous Version | Graphics & Text | Print | Product List | Glossary On
Versions: 1 2 3 4 5 6 7 8 9 10 11 12 13 14 15 16 17 18 19 20 21 22 23 24 25 26 27 28 29 30 31 32 33 34 35 36 37 38 39 40 41 42 43 44 45 46 47 48 49 50
000
ASUS41 KRLX 171810
RWRRLX
West Virginia Regional Weather Roundup
National Weather Service Charleston WV
100 PM EST SAT FEB 17 2018

Note: "fair" indicates few or no clouds below 12,000 feet with no
significant weather and/or obstructions to visibility.

WVZ003-171900-
Northern Panhandle of West Virginia

CITY           SKY/WX    TMP DP  RH WIND       PRES   REMARKS
WHEELING       CLOUDY    32  24  72 SE6       30.10F
$$

WVZ009-171900-
Northwest West Virginia

CITY           SKY/WX    TMP DP  RH WIND       PRES   REMARKS
PARKERSBURG    CLOUDY    36  29  75 SE8       30.11F
$$

WVZ006-171900-
Western West Virginia

CITY           SKY/WX    TMP DP  RH WIND       PRES   REMARKS
HUNTINGTON     HVY RAIN  36  33  89 N6        30.10F FOG
$$

WVZ015-171900-
West Central West Virginia

CITY           SKY/WX    TMP DP  RH WIND       PRES   REMARKS
CHARLESTON     LGT RAIN  41  37  86 NW5       30.09R FOG
$$

WVZ022-031-171900-
North Central West Virginia

CITY           SKY/WX    TMP DP  RH WIND       PRES   REMARKS
CLARKSBURG     CLOUDY    40  30  67 N7        30.13R
MORGANTOWN     CLOUDY    39  27  62 NE6       30.13R
$$

WVZ025-035-042-045-171900-
Southern West Virginia

CITY           SKY/WX    TMP DP  RH WIND       PRES   REMARKS
BECKLEY        LGT RAIN  37  35  92 SE6       30.05S FOG
LOGAN          LGT RAIN  43  41  93 CALM      30.04F
BLUEFIELD      CLOUDY    36  33  89 VRB7G18   30.04F FOG
LEWISBURG      FLURRIES  34  32  90 E3        30.10F
$$

WVZ047-171900-
Northern Mountains of West Virginia

CITY           SKY/WX    TMP DP  RH WIND       PRES   REMARKS
ELKINS         CLOUDY    41  31  67 SE6       30.09R
$$

WVZ052-171900-
Eastern Panhandle of West Virginia

CITY           SKY/WX    TMP DP  RH WIND       PRES   REMARKS
MARTINSBURG    CLOUDY    38  24  57 S8        30.23F
PETERSBURG     CLOUDY    35  27  70 N5        30.18F
$$



USA.gov is the U.S. government's official web portal to all federal, state and local government web resources and services.